GW1454 Weather Reports


time (UTC)temp
C
wind
direction
speed
KPH
gust
KPH
rain 1hr
cm
rain 24hr
cm
rain mn
cm
humidity
%
barometer
mb
20260504193544 25 78 1.6 12.9 0.00 0.00 0.00 34 1014.2
20260504193102 25 295 4.8 14.5 0.00 0.00 0.00 35 1014.3
20260504192546 25 69 4.8 14.5 0.00 0.00 0.00 34 1014.4
20260504192048 25 336 3.2 14.5 0.00 0.00 0.00 35 1014.5
20260504191612 25 312 6.4 14.5 0.00 0.00 0.00 35 1014.6
20260504191048 25 40 4.8 16.1 0.00 0.00 0.00 34 1014.7
20260504190551 25 44 4.8 16.1 0.00 0.00 0.00 34 1014.7
20260504190051 25 166 4.8 14.5 0.00 0.00 0.00 35 1014.8
20260504185544 25 122 1.6 12.9 0.00 0.00 0.00 36 1014.9
20260504185046 24 0 4.8 14.5 0.00 0.00 0.00 35 1015.1
20260504184553 24 75 3.2 16.1 0.00 0.00 0.00 37 1015.1
20260504184045 24 74 4.8 17.7 0.00 0.00 0.00 36 1015.0
20260504183545 24 303 4.8 17.7 0.00 0.00 0.00 36 1015.1
20260504183053 24 70 8.0 16.1 0.00 0.00 0.00 36 1015.2
20260504182545 24 119 4.8 14.5 0.00 0.00 0.00 37 1015.1
20260504182045 23 85 4.8 14.5 0.00 0.00 0.00 37 1015.1
20260504181557 23 135 3.2 16.1 0.00 0.00 0.00 37 1015.1
20260504181045 23 63 4.8 16.1 0.00 0.00 0.00 36 1015.2
20260504180546 23 72 6.4 16.1 0.00 0.00 0.00 36 1015.3
20260504180052 23 55 4.8 14.5 0.00 0.00 0.00 36 1015.4
20260504175546 23 163 1.6 14.5 0.00 0.00 0.00 37 1015.3
20260504175045 23 83 6.4 16.1 0.00 0.00 0.00 36 1015.4
20260504174551 23 119 3.2 16.1 0.00 0.00 0.00 37 1015.4
20260504174046 23 71 4.8 20.9 0.00 0.00 0.00 39 1015.6
20260504173550 23 69 6.4 20.9 0.00 0.00 0.00 39 1015.5
20260504173050 23 167 4.8 16.1 0.00 0.00 0.00 38 1015.5
20260504172550 23 314 6.4 14.5 0.00 0.00 0.00 38 1015.6
20260504172045 23 103 1.6 14.5 0.00 0.00 0.00 39 1015.6
20260504171552 23 327 4.8 14.5 0.00 0.00 0.00 38 1015.6
20260504171045 22 238 3.2 19.3 0.00 0.00 0.00 40 1015.7
20260504170547 22 74 4.8 19.3 0.00 0.00 0.00 40 1015.9
20260504151050 20 143 3.2 14.5 0.00 0.00 0.00 42 1017.3
20260504150547 19 134 6.4 20.9 0.00 0.00 0.00 41 1017.3
20260504141047 18 103 3.2 6.4 0.00 0.00 0.00 52 1017.2
20260504140548 17 161 0.0 6.4 0.00 0.00 0.00 56 1017.2
20260504130547 13 0 1.6 6.4 0.00 0.00 0.00 67 1017.2
20260504110550 3 0 0.0 0.0 0.00 0.00 0.00 92 1017.1
20260504100550 3 0 0.0 0.0 0.00 0.00 0.00 91 1017.1
20260504090107 3 0 0.0 0.0 0.00 0.00 0.00 90 1017.3
20260504081601 4 0 0.0 0.0 0.00 0.00 0.00 87 1016.7
20260504081048 4 0 0.0 0.0 0.00 0.00 0.00 88 1016.8
20260504080548 4 0 0.0 0.0 0.00 0.00 0.00 87 1016.8
20260504050545 6 0 0.0 0.0 0.00 0.00 0.00 80 1017.2
20260504045548 6 0 0.0 0.0 0.00 0.00 0.00 78 1017.1
20260504045044 6 0 0.0 0.0 0.00 0.00 0.00 78 1017.1
20260504044609 6 0 0.0 0.0 0.00 0.00 0.00 78 1017.0
20260504044045 6 0 0.0 0.0 0.00 0.00 0.00 78 1017.0
20260504043544 6 0 0.0 0.0 0.00 0.00 0.00 78 1016.8
20260504043056 6 0 0.0 0.0 0.00 0.00 0.00 78 1016.7
20260504042547 6 0 0.0 0.0 0.00 0.00 0.00 78 1016.8
20260504042045 6 0 0.0 0.0 0.00 0.00 0.00 77 1016.9
20260504041554 6 0 0.0 0.0 0.00 0.00 0.00 78 1017.0
20260504041045 6 0 0.0 0.0 0.00 0.00 0.00 77 1016.9
20260504040545 6 0 0.0 0.0 0.00 0.00 0.00 77 1017.0
20260504040104 6 0 0.0 0.0 0.00 0.00 0.00 77 1017.0
20260504035547 6 0 0.0 0.0 0.00 0.00 0.00 76 1017.0
20260504035045 6 0 0.0 0.0 0.00 0.00 0.00 76 1017.0
20260504034607 6 0 0.0 0.0 0.00 0.00 0.00 75 1016.9
20260504034044 6 0 0.0 0.0 0.00 0.00 0.00 75 1017.0
20260504033544 6 0 0.0 0.0 0.00 0.00 0.00 75 1017.0
20260504033056 6 0 0.0 0.0 0.00 0.00 0.00 75 1017.0
20260504032544 6 0 0.0 0.0 0.00 0.00 0.00 76 1017.1
20260504032044 6 0 0.0 0.0 0.00 0.00 0.00 76 1017.0
20260504031553 6 0 0.0 0.0 0.00 0.00 0.00 75 1017.0
20260504031046 6 0 0.0 0.0 0.00 0.00 0.00 72 1017.1
20260504030547 6 0 0.0 0.0 0.00 0.00 0.00 72 1017.2
20260504030052 6 0 0.0 0.0 0.00 0.00 0.00 72 1017.2
20260504025550 6 0 0.0 0.0 0.00 0.00 0.00 71 1017.2
20260504025048 7 0 0.0 0.0 0.00 0.00 0.00 72 1017.1
20260504024552 7 0 0.0 0.0 0.00 0.00 0.00 73 1017.0
20260504024047 7 0 0.0 0.0 0.00 0.00 0.00 73 1017.0
20260504023545 7 0 0.0 0.0 0.00 0.00 0.00 72 1016.9
20260504023052 7 0 0.0 0.0 0.00 0.00 0.00 74 1016.9
20260504022547 7 0 0.0 0.0 0.00 0.00 0.00 73 1016.8
20260504022048 7 0 0.0 0.0 0.00 0.00 0.00 72 1016.7
20260504021551 7 0 0.0 0.0 0.00 0.00 0.00 71 1016.7
20260504021044 7 0 0.0 0.0 0.00 0.00 0.00 71 1016.6
20260504020547 7 0 0.0 0.0 0.00 0.00 0.00 70 1016.6
20260504020052 8 0 0.0 0.0 0.00 0.00 0.00 69 1016.5
20260504015544 8 0 0.0 0.0 0.00 0.00 0.00 69 1016.5
20260504015047 8 0 0.0 0.0 0.00 0.00 0.00 70 1016.4
20260504014556 8 0 0.0 0.0 0.00 0.00 0.00 70 1016.3
20260504014048 8 0 0.0 0.0 0.00 0.00 0.00 69 1016.3
20260504013547 8 0 0.0 0.0 0.00 0.00 0.00 68 1016.3
20260504013103 8 0 0.0 0.0 0.00 0.00 0.00 67 1016.3
20260504012548 9 0 0.0 0.0 0.00 0.00 0.00 67 1016.3
20260504012047 9 0 0.0 0.0 0.00 0.00 0.00 65 1016.3
20260504011550 9 0 0.0 0.0 0.00 0.00 0.00 65 1016.3
20260504011048 9 0 0.0 0.0 0.00 0.00 0.00 65 1016.3
20260504010545 10 0 0.0 0.0 0.00 0.00 0.00 64 1016.3
20260504010057 10 0 0.0 0.0 0.00 0.00 0.00 63 1016.2
20260504005547 10 0 0.0 0.0 0.00 0.00 0.00 62 1016.1
20260504005047 10 0 0.0 0.0 0.00 0.00 0.00 59 1016.2
20260504004600 10 0 0.0 0.0 0.00 0.00 0.00 59 1016.0
20260504004048 11 0 0.0 0.0 0.00 0.00 0.00 57 1016.0
20260504003544 11 0 0.0 0.0 0.00 0.00 0.00 56 1015.9
20260504003051 11 0 0.0 0.0 0.00 0.00 0.00 56 1015.9
20260504002547 11 0 0.0 0.0 0.00 0.00 0.00 54 1015.9
20260504002047 12 0 0.0 0.0 0.00 0.00 0.00 52 1015.8
20260504001553 12 0 0.0 0.0 0.00 0.00 0.00 51 1015.7
20260504001048 12 0 0.0 0.0 0.00 0.00 0.00 49 1015.8
20260504000548 13 0 0.0 0.0 0.00 0.00 0.00 48 1015.8
20260504000114 13 0 0.0 0.0 0.00 0.00 0.00 46 1015.8
20260503235544 14 0 0.0 0.0 0.00 0.00 0.00 44 1015.7
20260503235048 14 0 0.0 0.0 0.00 0.00 0.00 44 1015.7
20260503234553 15 0 0.0 0.0 0.00 0.00 0.00 40 1015.7
20260503234048 15 0 0.0 0.0 0.00 0.00 0.00 39 1015.7
20260503233548 16 0 0.0 4.8 0.00 0.00 0.00 37 1015.7
20260503233056 16 0 0.0 4.8 0.00 0.00 0.00 37 1015.8
20260503232544 16 103 0.0 4.8 0.00 0.00 0.00 36 1015.8
20260503232047 16 42 0.0 4.8 0.00 0.00 0.00 35 1015.8
20260503231553 16 91 0.0 4.8 0.00 0.00 0.00 35 1015.8
20260503231047 17 101 0.0 4.8 0.00 0.00 0.00 34 1015.8
20260503230551 17 0 0.0 6.4 0.00 0.00 0.00 34 1015.7
20260503230058 17 89 0.0 8.0 0.00 0.00 0.00 33 1015.8
20260503225547 17 65 0.0 9.7 0.00 0.00 0.00 34 1015.8
20260503225048 17 144 3.2 12.9 0.00 0.00 0.00 32 1015.8
20260503224550 18 94 4.8 16.1 0.00 0.00 0.00 31 1015.8
20260503224048 18 157 4.8 16.1 0.00 0.00 0.00 31 1015.9
20260503223548 18 317 1.6 8.0 0.00 0.00 0.00 30 1015.9
20260503223057 18 135 3.2 8.0 0.00 0.00 0.00 29 1015.8
20260503222548 18 156 3.2 8.0 0.00 0.00 0.00 29 1015.9
20260503222048 18 67 1.6 17.7 0.00 0.00 0.00 29 1016.0
20260503221553 18 156 4.8 17.7 0.00 0.00 0.00 29 1016.0
20260503221048 18 88 3.2 11.3 0.00 0.00 0.00 29 1016.1
20260503220548 18 155 1.6 9.7 0.00 0.00 0.00 30 1016.2
20260503220107 18 53 3.2 14.5 0.00 0.00 0.00 28 1016.1
20260503215546 19 69 4.8 14.5 0.00 0.00 0.00 29 1016.2
20260503215045 18 100 1.6 16.1 0.00 0.00 0.00 29 1016.2
20260503214549 18 157 4.8 16.1 0.00 0.00 0.00 28 1016.3
20260503214047 18 144 4.8 16.1 0.00 0.00 0.00 28 1016.3
20260503213547 19 192 1.6 9.7 0.00 0.00 0.00 28 1016.4
20260503213048 18 106 3.2 16.1 0.00 0.00 0.00 27 1016.5
20260503212547 18 144 4.8 16.1 0.00 0.00 0.00 27 1016.5
20260503212044 18 104 4.8 11.3 0.00 0.00 0.00 29 1016.5
20260503211555 18 75 3.2 12.9 0.00 0.00 0.00 29 1016.6
20260503211048 18 142 6.4 12.9 0.00 0.00 0.00 28 1016.6
20260503210544 18 171 3.2 12.9 0.00 0.00 0.00 28 1016.5
20260503210053 18 184 3.2 14.5 0.00 0.00 0.00 27 1016.5
20260503205545 18 221 4.8 14.5 0.00 0.00 0.00 27 1016.6
20260503205048 18 129 6.4 14.5 0.00 0.00 0.00 28 1016.6
20260503204552 18 132 3.2 14.5 0.00 0.00 0.00 26 1016.7
20260503204047 18 126 3.2 14.5 0.00 0.00 0.00 26 1016.7
20260503203545 18 149 1.6 14.5 0.00 0.00 0.00 26 1016.8
20260503203056 18 114 3.2 17.7 0.00 0.00 0.00 25 1017.0
20260503202545 18 125 6.4 17.7 0.00 0.00 0.00 27 1017.1
20260503202048 18 109 6.4 16.1 0.00 0.00 0.00 27 1017.0
20260503201552 18 138 1.6 12.9 0.00 0.00 0.00 27 1017.1
20260503201047 18 134 6.4 20.9 0.00 0.00 0.00 30 1017.2
20260503200547 18 0 6.4 20.9 0.00 0.00 0.00 27 1017.3
20260503200101 17 66 8.0 20.9 0.00 0.00 0.00 28 1017.4
20260503195546 17 76 6.4 20.9 0.00 0.00 0.00 28 1017.6
20260503195047 17 121 6.4 20.9 0.00 0.00 0.00 27 1017.5
20260503194559 17 57 11.3 20.9 0.00 0.00 0.00 27 1017.7
20260503194047 17 291 6.4 17.7 0.00 0.00 0.00 27 1017.7